EW4214 Weather Reports


Display with metric or nautical units.
time (UTC)temp
F
wind
direction
speed
MPH
gust
MPH
rain 1hr
in
rain 24hr
in
rain mn
in
humidity
%
barometer
mb
20260508053735 92 214 1.0 4.0 0.00 0.03 0.00 36 1007.9
20260508053404 92 231 2.0 4.0 0.00 0.03 0.00 36 1007.9
20260508051707 93 206 0.0 3.0 0.00 0.03 0.00 37 1008.2
20260508051357 92 200 0.0 4.0 0.00 0.03 0.00 36 1008.7
20260508045704 89 285 2.0 3.0 0.00 0.03 0.00 39 1008.8
20260508045149 91 212 1.0 3.0 0.00 0.03 0.00 39 1009.0
20260508044145 90 259 2.0 3.0 0.00 0.03 0.00 40 1009.2
20260508042703 90 158 0.0 2.0 0.00 0.03 0.00 41 1009.3
20260508041703 88 201 0.0 3.0 0.00 0.03 0.00 42 1009.4
20260508040703 89 167 0.0 3.0 0.00 0.03 0.00 42 1009.6
20260508035703 88 189 0.0 2.0 0.00 0.03 0.00 43 1009.8
20260508035352 87 166 0.0 3.0 0.00 0.03 0.00 44 1009.9
20260508035348 87 202 0.0 2.0 0.00 0.03 0.00 42 1009.9
20260508033634 88 205 1.0 3.0 0.00 0.03 0.00 43 1009.9
20260508031704 87 191 0.0 2.0 0.00 0.03 0.00 43 1009.9
20260508030704 87 154 1.0 2.0 0.00 0.03 0.00 45 1009.9
20260508030150 86 187 0.0 1.0 0.00 0.03 0.00 46 1010.0
20260508024703 86 198 0.0 1.0 0.00 0.03 0.00 46 1010.0
20260508023703 85 164 0.0 1.0 0.00 0.03 0.00 48 1010.0
20260508023630 84 207 0.0 3.0 0.00 0.03 0.00 50 1010.1
20260508021703 83 168 1.0 2.0 0.00 0.03 0.00 50 1010.1
20260508020703 83 172 0.0 1.0 0.00 0.03 0.00 51 1010.0
20260508015703 82 126 2.0 2.0 0.00 0.03 0.00 52 1010.1
20260508014703 81 198 0.0 3.0 0.00 0.03 0.00 54 1009.9
20260508013703 80 159 0.0 2.0 0.00 0.03 0.00 55 1009.9
20260508013153 80 163 0.0 1.0 0.00 0.03 0.00 55 1009.7
20260508012641 79 168 0.0 1.0 0.00 0.03 0.00 56 1009.7
20260508010702 78 184 0.0 1.0 0.00 0.03 0.00 57 1009.6
20260508010140 78 181 0.0 2.0 0.00 0.03 0.00 57 1009.4